Time,TemperatureF,DewpointF,PressureIn,WindDirection,WindDirectionDegrees,WindSpeedMPH,WindSpeedGustMPH,Humidity,HourlyPrecipIn,Conditions,Clouds,dailyrainin,SoftwareType,DateUTC
2013-03-06 00:01:00,34.0,17.0,-100.00,North,350,5.0,9.0,48,0.00,,,-99.99,,2013-03-06 07:01:00,
2013-03-06 00:11:00,33.0,16.0,-100.00,NNW,335,4.0,8.0,48,0.00,,,-99.99,,2013-03-06 07:11:00,
2013-03-06 00:21:00,34.0,17.0,-100.00,NNW,335,6.0,7.0,49,0.00,,,-99.99,,2013-03-06 07:21:00,
2013-03-06 00:31:00,34.0,17.0,-100.00,NNW,330,6.0,9.0,49,0.00,,,-99.99,,2013-03-06 07:31:00,
2013-03-06 00:42:00,33.0,17.0,-100.00,NNW,330,8.0,10.0,49,0.00,,,-99.99,,2013-03-06 07:42:00,
2013-03-06 00:52:00,33.0,17.0,-100.00,NNW,335,7.0,11.0,49,0.00,,,-99.99,,2013-03-06 07:52:00,
2013-03-06 01:01:00,33.0,17.0,-100.00,NW,320,7.0,9.0,50,0.00,,,-99.99,,2013-03-06 08:01:00,
2013-03-06 01:11:00,33.0,17.0,-100.00,NNW,340,7.0,10.0,50,0.00,,,-99.99,,2013-03-06 08:11:00,
2013-03-06 01:21:00,33.0,17.0,-100.00,NNW,345,7.0,11.0,50,0.00,,,-99.99,,2013-03-06 08:21:00,
2013-03-06 01:31:00,33.0,17.0,-100.00,NNW,330,7.0,11.0,51,0.00,,,-99.99,,2013-03-06 08:31:00,
2013-03-06 01:42:00,33.0,17.0,-100.00,NNW,340,7.0,11.0,51,0.00,,,-99.99,,2013-03-06 08:42:00,
2013-03-06 01:52:00,33.0,17.0,-100.00,NNW,335,8.0,12.0,52,0.00,,,-99.99,,2013-03-06 08:52:00,
2013-03-06 02:01:00,33.0,17.0,-100.00,NNW,345,6.0,12.0,52,0.00,,,-99.99,,2013-03-06 09:01:00,
2013-03-06 02:12:00,33.0,17.0,-100.00,NW,315,9.0,13.0,52,0.00,,,-99.99,,2013-03-06 09:12:00,
2013-03-06 02:21:00,33.0,17.0,-100.00,NNW,340,8.0,13.0,52,0.00,,,-99.99,,2013-03-06 09:21:00,
2013-03-06 02:31:00,33.0,17.0,-100.00,NW,325,4.0,12.0,52,0.00,,,-99.99,,2013-03-06 09:31:00,
2013-03-06 02:41:00,33.0,17.0,-100.00,NW,325,9.0,13.0,53,0.00,,,-99.99,,2013-03-06 09:41:00,
2013-03-06 02:51:00,32.0,17.0,-100.00,NNW,330,9.0,12.0,53,0.00,,,-99.99,,2013-03-06 09:51:00,
2013-03-06 03:01:00,32.0,17.0,-100.00,NNW,330,8.0,10.0,53,0.00,,,-99.99,,2013-03-06 10:01:00,
2013-03-06 03:11:00,32.0,18.0,-100.00,NNW,330,9.0,10.0,54,0.00,,,-99.99,,2013-03-06 10:11:00,
2013-03-06 03:21:00,32.0,18.0,-100.00,NNW,335,8.0,12.0,55,0.00,,,-99.99,,2013-03-06 10:21:00,
2013-03-06 03:31:00,32.0,17.0,-100.00,NNW,345,6.0,12.0,55,0.00,,,-99.99,,2013-03-06 10:31:00,
2013-03-06 03:41:00,32.0,17.0,-100.00,NNW,345,7.0,12.0,54,0.00,,,-99.99,,2013-03-06 10:41:00,
2013-03-06 03:51:00,32.0,17.0,-100.00,NNW,335,8.0,11.0,54,0.00,,,-99.99,,2013-03-06 10:51:00,
2013-03-06 04:01:00,32.0,17.0,-100.00,North,0,6.0,11.0,54,0.00,,,-99.99,,2013-03-06 11:01:00,
2013-03-06 04:11:00,32.0,17.0,-100.00,NNW,345,9.0,15.0,54,0.00,,,-99.99,,2013-03-06 11:11:00,
2013-03-06 04:22:00,32.0,17.0,-100.00,NNW,335,7.0,12.0,54,0.00,,,-99.99,,2013-03-06 11:22:00,
2013-03-06 04:31:00,32.0,17.0,-100.00,NNW,330,9.0,14.0,54,0.00,,,-99.99,,2013-03-06 11:31:00,
2013-03-06 04:42:00,31.0,17.0,-100.00,NW,325,9.0,13.0,55,0.00,,,-99.99,,2013-03-06 11:42:00,
2013-03-06 04:52:00,31.0,17.0,-100.00,North,0,6.0,12.0,55,0.00,,,-99.99,,2013-03-06 11:52:00,
2013-03-06 05:01:00,31.0,17.0,-100.00,North,0,9.0,14.0,54,0.00,,,-99.99,,2013-03-06 12:01:00,
2013-03-06 05:11:00,31.0,17.0,-100.00,North,0,9.0,15.0,54,0.00,,,-99.99,,2013-03-06 12:11:00,
2013-03-06 05:21:00,31.0,17.0,-100.00,North,0,8.0,15.0,54,0.00,,,-99.99,,2013-03-06 12:21:00,
2013-03-06 05:32:00,31.0,17.0,-100.00,North,0,9.0,13.0,53,0.00,,,-99.99,,2013-03-06 12:32:00,
2013-03-06 05:42:00,31.0,17.0,-100.00,North,0,9.0,12.0,53,0.00,,,-99.99,,2013-03-06 12:42:00,
2013-03-06 05:52:00,31.0,16.0,-100.00,North,0,8.0,14.0,53,0.00,,,-99.99,,2013-03-06 12:52:00,
2013-03-06 06:01:00,31.0,16.0,-100.00,North,0,6.0,12.0,53,0.00,,,-99.99,,2013-03-06 13:01:00,
2013-03-06 06:11:00,31.0,17.0,-100.00,NNW,340,6.0,10.0,54,0.00,,,-99.99,,2013-03-06 13:11:00,
2013-03-06 06:21:00,31.0,16.0,-100.00,NNW,340,6.0,10.0,54,0.00,,,-99.99,,2013-03-06 13:21:00,
2013-03-06 06:31:00,31.0,17.0,-100.00,NNW,340,6.0,9.0,55,0.00,,,-99.99,,2013-03-06 13:31:00,
2013-03-06 06:42:00,31.0,17.0,-100.00,NNW,330,9.0,12.0,55,0.00,,,-99.99,,2013-03-06 13:42:00,
2013-03-06 06:51:00,30.0,17.0,-100.00,NW,325,9.0,13.0,56,0.00,,,-99.99,,2013-03-06 13:51:00,
2013-03-06 07:01:00,30.0,17.0,-100.00,NW,325,10.0,12.0,56,0.00,,,-99.99,,2013-03-06 14:01:00,
2013-03-06 07:11:00,31.0,17.0,-100.00,NNW,330,7.0,13.0,56,0.00,,,-99.99,,2013-03-06 14:11:00,
2013-03-06 07:21:00,31.0,17.0,-100.00,NNW,340,6.0,11.0,56,0.00,,,-99.99,,2013-03-06 14:21:00,
2013-03-06 07:32:00,31.0,17.0,-100.00,North,0,6.0,12.0,55,0.00,,,-99.99,,2013-03-06 14:32:00,
2013-03-06 07:41:00,31.0,17.0,-100.00,NW,325,9.0,12.0,55,0.00,,,-99.99,,2013-03-06 14:41:00,
2013-03-06 07:52:00,31.0,17.0,-100.00,North,0,6.0,12.0,55,0.00,,,-99.99,,2013-03-06 14:52:00,
2013-03-06 08:01:00,31.0,17.0,-100.00,NNW,345,6.0,10.0,55,0.00,,,-99.99,,2013-03-06 15:01:00,
2013-03-06 08:11:00,32.0,18.0,-100.00,NNW,340,6.0,9.0,55,0.00,,,-99.99,,2013-03-06 15:11:00,
2013-03-06 08:21:00,33.0,18.0,-100.00,NNE,15,6.0,12.0,53,0.00,,,-99.99,,2013-03-06 15:21:00,
2013-03-06 08:32:00,34.0,18.0,-100.00,North,0,10.0,16.0,51,0.00,,,-99.99,,2013-03-06 15:32:00,
2013-03-06 08:41:00,34.0,18.0,-100.00,North,0,6.0,14.0,50,0.00,,,-99.99,,2013-03-06 15:41:00,
2013-03-06 08:51:00,35.0,18.0,-100.00,North,355,8.0,16.0,49,0.00,,,-99.99,,2013-03-06 15:51:00,
2013-03-06 09:01:00,36.0,19.0,-100.00,North,355,9.0,16.0,48,0.00,,,-99.99,,2013-03-06 16:01:00,
2013-03-06 09:11:00,37.0,19.0,-100.00,North,0,9.0,17.0,46,0.00,,,-99.99,,2013-03-06 16:11:00,
2013-03-06 09:21:00,38.0,18.0,-100.00,North,350,9.0,17.0,44,0.00,,,-99.99,,2013-03-06 16:21:00,
2013-03-06 09:32:00,40.0,19.0,-100.00,NNW,345,9.0,17.0,42,0.00,,,-99.99,,2013-03-06 16:32:00,
2013-03-06 09:41:00,40.0,18.0,-100.00,North,0,10.0,16.0,41,0.00,,,-99.99,,2013-03-06 16:41:00,
2013-03-06 09:51:00,40.0,18.0,-100.00,North,5,10.0,19.0,40,0.00,,,-99.99,,2013-03-06 16:51:00,
2013-03-06 10:01:00,41.0,19.0,-100.00,North,0,9.0,18.0,40,0.00,,,-99.99,,2013-03-06 17:01:00,
2013-03-06 10:11:00,42.0,19.0,-100.00,NNW,345,7.0,16.0,39,0.00,,,-99.99,,2013-03-06 17:11:00,
2013-03-06 10:21:00,43.0,20.0,-100.00,North,0,6.0,13.0,38,0.00,,,-99.99,,2013-03-06 17:21:00,
2013-03-06 10:31:00,45.0,20.0,-100.00,North,0,6.0,14.0,37,0.00,,,-99.99,,2013-03-06 17:31:00,
2013-03-06 10:41:00,45.0,20.0,-100.00,North,355,7.0,13.0,36,0.00,,,-99.99,,2013-03-06 17:41:00,
2013-03-06 10:52:00,47.0,21.0,-100.00,North,350,7.0,13.0,35,0.00,,,-99.99,,2013-03-06 17:52:00,
2013-03-06 11:01:00,47.0,21.0,-100.00,NNW,335,6.0,12.0,35,0.00,,,-99.99,,2013-03-06 18:01:00,
2013-03-06 11:28:00,49.0,22.0,-100.00,North,0,7.0,12.0,33,0.00,,,-99.99,,2013-03-06 18:28:00,
2013-03-06 11:42:00,51.0,23.0,-100.00,NW,320,9.0,13.0,32,0.00,,,-99.99,,2013-03-06 18:42:00,
2013-03-06 11:52:00,52.0,23.0,-100.00,NW,325,9.0,13.0,31,0.00,,,-99.99,,2013-03-06 18:52:00,
2013-03-06 12:02:00,53.0,23.0,-100.00,NNW,330,7.0,10.0,30,0.00,,,-99.99,,2013-03-06 19:02:00,
2013-03-06 12:11:00,54.0,23.0,-100.00,NNW,335,10.0,12.0,30,0.00,,,-99.99,,2013-03-06 19:11:00,
2013-03-06 12:21:00,54.0,24.0,-100.00,NW,315,10.0,13.0,30,0.00,,,-99.99,,2013-03-06 19:21:00,
2013-03-06 12:31:00,57.0,25.0,-100.00,NNW,335,5.0,10.0,29,0.00,,,-99.99,,2013-03-06 19:31:00,
2013-03-06 12:42:00,62.0,28.0,-100.00,SSE,160,13.0,20.0,27,0.00,,,-99.99,,2013-03-06 19:42:00,
2013-03-06 12:52:00,64.0,27.0,-100.00,South,170,18.0,25.0,24,0.00,,,-99.99,,2013-03-06 19:52:00,
2013-03-06 13:01:00,65.0,27.0,-100.00,South,175,16.0,25.0,23,0.00,,,-99.99,,2013-03-06 20:01:00,
2013-03-06 13:11:00,65.0,26.0,-100.00,South,190,10.0,21.0,22,0.00,,,-99.99,,2013-03-06 20:11:00,
2013-03-06 13:21:00,62.0,24.0,-100.00,SSW,200,7.0,19.0,22,0.00,,,-99.99,,2013-03-06 20:21:00,
2013-03-06 13:32:00,63.0,24.0,-100.00,SSE,165,12.0,24.0,22,0.00,,,-99.99,,2013-03-06 20:32:00,
2013-03-06 13:42:00,63.0,24.0,-100.00,South,170,17.0,27.0,22,0.00,,,-99.99,,2013-03-06 20:42:00,
2013-03-06 13:52:00,64.0,24.0,-100.00,SSE,160,15.0,24.0,21,0.00,,,-99.99,,2013-03-06 20:52:00,
2013-03-06 14:01:00,65.0,24.0,-100.00,South,175,22.0,32.0,21,0.00,,,-99.99,,2013-03-06 21:01:00,
2013-03-06 14:11:00,65.0,24.0,-100.00,SSE,165,16.0,34.0,21,0.00,,,-99.99,,2013-03-06 21:11:00,
2013-03-06 14:21:00,65.0,24.0,-100.00,South,185,17.0,28.0,21,0.00,,,-99.99,,2013-03-06 21:21:00,
2013-03-06 14:31:00,65.0,24.0,-100.00,South,180,17.0,32.0,20,0.00,,,-99.99,,2013-03-06 21:31:00,
2013-03-06 14:42:00,65.0,24.0,-100.00,South,175,17.0,34.0,20,0.00,,,-99.99,,2013-03-06 21:42:00,
2013-03-06 14:51:00,65.0,24.0,-100.00,South,180,14.0,25.0,20,0.00,,,-99.99,,2013-03-06 21:51:00,
2013-03-06 15:01:00,65.0,23.0,-100.00,South,170,16.0,26.0,19,0.00,,,-99.99,,2013-03-06 22:01:00,
2013-03-06 15:11:00,64.0,23.0,-100.00,SSW,205,12.0,29.0,20,0.00,,,-99.99,,2013-03-06 22:11:00,
2013-03-06 15:21:00,64.0,23.0,-100.00,SW,230,4.0,21.0,20,0.00,,,-99.99,,2013-03-06 22:21:00,
2013-03-06 15:31:00,64.0,22.0,-100.00,South,185,12.0,18.0,20,0.00,,,-99.99,,2013-03-06 22:31:00,
2013-03-06 15:41:00,65.0,23.0,-100.00,South,185,11.0,17.0,20,0.00,,,-99.99,,2013-03-06 22:41:00,
2013-03-06 15:51:00,64.0,23.0,-100.00,SSW,195,10.0,19.0,20,0.00,,,-99.99,,2013-03-06 22:51:00,
2013-03-06 16:01:00,64.0,23.0,-100.00,SW,220,12.0,19.0,20,0.00,,,-99.99,,2013-03-06 23:01:00,
2013-03-06 16:11:00,64.0,23.0,-100.00,South,170,12.0,30.0,20,0.00,,,-99.99,,2013-03-06 23:11:00,
2013-03-06 16:21:00,64.0,22.0,-100.00,South,190,14.0,24.0,20,0.00,,,-99.99,,2013-03-06 23:21:00,
2013-03-06 16:31:00,64.0,22.0,-100.00,South,175,12.0,22.0,19,0.00,,,-99.99,,2013-03-06 23:31:00,
2013-03-06 16:41:00,64.0,23.0,-100.00,SSW,200,3.0,19.0,20,0.00,,,-99.99,,2013-03-06 23:41:00,
2013-03-06 16:52:00,64.0,22.0,-100.00,South,175,8.0,17.0,20,0.00,,,-99.99,,2013-03-06 23:52:00,
2013-03-06 17:01:00,62.0,21.0,-100.00,South,170,7.0,14.0,20,0.00,,,-99.99,,2013-03-07 00:01:00,
2013-03-06 17:11:00,61.0,21.0,-100.00,South,185,7.0,17.0,21,0.00,,,-99.99,,2013-03-07 00:11:00,
2013-03-06 17:21:00,62.0,21.0,-100.00,SSW,200,16.0,24.0,21,0.00,,,-99.99,,2013-03-07 00:21:00,
2013-03-06 17:32:00,61.0,20.0,-100.00,South,190,12.0,27.0,20,0.00,,,-99.99,,2013-03-07 00:32:00,
2013-03-06 17:41:00,61.0,20.0,-100.00,South,190,11.0,21.0,20,0.00,,,-99.99,,2013-03-07 00:41:00,
2013-03-06 17:51:00,60.0,20.0,-100.00,South,170,11.0,23.0,21,0.00,,,-99.99,,2013-03-07 00:51:00,
2013-03-06 18:01:00,60.0,20.0,-100.00,South,170,10.0,22.0,21,0.00,,,-99.99,,2013-03-07 01:01:00,
2013-03-06 18:11:00,60.0,20.0,-100.00,South,175,13.0,20.0,21,0.00,,,-99.99,,2013-03-07 01:11:00,
2013-03-06 18:21:00,59.0,19.0,-100.00,South,180,9.0,17.0,21,0.00,,,-99.99,,2013-03-07 01:21:00,
2013-03-06 18:31:00,58.0,19.0,-100.00,South,170,7.0,17.0,21,0.00,,,-99.99,,2013-03-07 01:31:00,
2013-03-06 18:41:00,58.0,19.0,-100.00,South,180,11.0,15.0,21,0.00,,,-99.99,,2013-03-07 01:41:00,
2013-03-06 18:51:00,58.0,19.0,-100.00,South,175,13.0,17.0,21,0.00,,,-99.99,,2013-03-07 01:51:00,
2013-03-06 19:01:00,56.0,19.0,-100.00,South,170,11.0,17.0,22,0.00,,,-99.99,,2013-03-07 02:01:00,
2013-03-06 19:11:00,56.0,19.0,-100.00,South,180,12.0,17.0,22,0.00,,,-99.99,,2013-03-07 02:11:00,
2013-03-06 19:21:00,56.0,19.0,-100.00,South,170,11.0,17.0,22,0.00,,,-99.99,,2013-03-07 02:21:00,
2013-03-06 19:31:00,56.0,19.0,-100.00,South,185,11.0,15.0,22,0.00,,,-99.99,,2013-03-07 02:31:00,
2013-03-06 19:41:00,56.0,19.0,-100.00,South,185,11.0,15.0,22,0.00,,,-99.99,,2013-03-07 02:41:00,
2013-03-06 19:51:00,56.0,19.0,-100.00,South,185,11.0,15.0,22,0.00,,,-99.99,,2013-03-07 02:51:00,
2013-03-06 20:01:00,56.0,19.0,-100.00,SSE,165,4.0,7.0,22,0.00,,,-99.99,,2013-03-07 03:01:00,
2013-03-06 20:11:00,55.0,18.0,-100.00,SE,135,2.0,9.0,23,0.00,,,-99.99,,2013-03-07 03:11:00,
2013-03-06 20:21:00,55.0,18.0,-100.00,ESE,115,3.0,6.0,23,0.00,,,-99.99,,2013-03-07 03:21:00,
2013-03-06 20:31:00,55.0,18.0,-100.00,SE,130,1.0,6.0,23,0.00,,,-99.99,,2013-03-07 03:31:00,
2013-03-06 20:41:00,55.0,18.0,-100.00,SSW,200,6.0,10.0,23,0.00,,,-99.99,,2013-03-07 03:41:00,
2013-03-06 20:51:00,55.0,19.0,-100.00,SSE,165,4.0,7.0,23,0.00,,,-99.99,,2013-03-07 03:51:00,
2013-03-06 21:01:00,53.0,17.0,-100.00,SE,135,5.0,6.0,24,0.00,,,-99.99,,2013-03-07 04:01:00,
2013-03-06 21:11:00,51.0,17.0,-100.00,NW,315,0.0,3.0,25,0.00,,,-99.99,,2013-03-07 04:11:00,
2013-03-06 21:21:00,49.0,17.0,-100.00,NNW,330,2.0,3.0,27,0.00,,,-99.99,,2013-03-07 04:21:00,
2013-03-06 21:31:00,48.0,18.0,-100.00,WNW,295,2.0,4.0,29,0.00,,,-99.99,,2013-03-07 04:31:00,
2013-03-06 21:41:00,48.0,18.0,-100.00,NW,325,2.0,2.0,30,0.00,,,-99.99,,2013-03-07 04:41:00,
2013-03-06 21:51:00,48.0,19.0,-100.00,NW,325,5.0,6.0,31,0.00,,,-99.99,,2013-03-07 04:51:00,
2013-03-06 22:01:00,48.0,19.0,-100.00,NNW,345,3.0,5.0,31,0.00,,,-99.99,,2013-03-07 05:01:00,
2013-03-06 22:12:00,47.0,20.0,-100.00,NNW,335,3.0,6.0,33,0.00,,,-99.99,,2013-03-07 05:12:00,
2013-03-06 22:22:00,47.0,20.0,-100.00,NNW,330,4.0,6.0,34,0.00,,,-99.99,,2013-03-07 05:22:00,
2013-03-06 22:31:00,46.0,20.0,-100.00,NNW,335,4.0,5.0,35,0.00,,,-99.99,,2013-03-07 05:31:00,
2013-03-06 22:41:00,45.0,20.0,-100.00,NNW,340,3.0,6.0,36,0.00,,,-99.99,,2013-03-07 05:41:00,
2013-03-06 22:52:00,44.0,20.0,-100.00,North,0,2.0,5.0,37,0.00,,,-99.99,,2013-03-07 05:52:00,
2013-03-06 23:01:00,44.0,21.0,-100.00,NNW,345,3.0,4.0,39,0.00,,,-99.99,,2013-03-07 06:01:00,
2013-03-06 23:11:00,44.0,21.0,-100.00,North,350,4.0,5.0,40,0.00,,,-99.99,,2013-03-07 06:11:00,
2013-03-06 23:21:00,44.0,22.0,-100.00,NNW,340,2.0,6.0,42,0.00,,,-99.99,,2013-03-07 06:21:00,
2013-03-06 23:31:00,43.0,22.0,-100.00,North,350,4.0,6.0,42,0.00,,,-99.99,,2013-03-07 06:31:00,
2013-03-06 23:41:00,44.0,23.0,-100.00,NNW,345,4.0,5.0,43,0.00,,,-99.99,,2013-03-07 06:41:00,
2013-03-06 23:51:00,43.0,22.0,-100.00,North,0,2.0,4.0,43,0.00,,,-99.99,,2013-03-07 06:51:00,